Home   Weather   Marburg   Past weeks

Flag for Germany Past Weather in Marburg, Hesse, Germany — Yesterday and Last 2 Weeks

Now
75 °F

Sunny.


Feels Like: 78 °F
Forecast: 56 / 80 °F
Wind: 9 mph from Southeast

Location: Hessen

Current Time: May 27, 2017 at 7:32:14 pm

Latest Report: May 27, 2017 at 6:50 pm


Visibility: 10 mi

Pressure: 30.12 "Hg

Humidity: 47%

Dew Point: 54 °F

Location of MarburgLocation

Past Weather in Marburg — Graph

°F

Marburg Temperature Yesterday

Maximum temperature yesterday: 72 °F (at 4:20 pm)
Minimum temperature yesterday: 52 °F (at 7:50 am)
Average temperature yesterday: 64 °F

High & Low Weather Summary for the Past Weeks

 TemperatureHumidityPressure
High77 °F (May 27, 5:50 pm)100% (May 12, 7:50 pm)30.42 "Hg (May 12, 7:50 pm)
Low43 °F (May 20, 7:20 am)39% (May 15, 6:20 pm)29.65 "Hg (May 12, 6:20 pm)
Average61 °F65%30.15 "Hg
* Reported May 12 6:20 pm — May 27 6:20 pm, Marburg. Weather by CustomWeather, © 2017

Note: Actual official high and low records may vary slightly from our data, if they occured in-between our weather recording intervals... More about our weather records

Advertising

Marburg Weather History for the Previous 24 Hours

Scroll right to see more
 ConditionsComfort  
Time TempWeatherWind HumidityBarometerVisibility
6:20 pm
Sat, May 27
75 °FPassing clouds.9 mph47%30.12 "HgN/A
5:50 pm77 °FPassing clouds.10 mph47%30.12 "HgN/A
5:20 pm75 °FPassing clouds.13 mph50%30.12 "HgN/A
4:50 pm75 °FSunny.13 mph47%30.12 "Hg10 mi
4:20 pm75 °FPassing clouds.9 mph50%30.15 "HgN/A
3:50 pm75 °FPassing clouds.12 mph50%30.15 "HgN/A
3:20 pm73 °FPassing clouds.14 mph53%30.15 "HgN/A
2:50 pm73 °FSunny.17 mph53%30.15 "Hg10 mi
2:20 pm73 °FSunny.12 mph53%30.15 "Hg10 mi
1:50 pm73 °FSunny.20 mph53%30.15 "Hg10 mi
1:20 pm72 °FSunny.14 mph57%30.15 "Hg10 mi
12:50 pm72 °FSunny.14 mph61%30.15 "Hg10 mi
12:20 pm72 °FSunny.14 mph53%30.18 "Hg10 mi
11:50 am70 °FSunny.15 mph60%30.18 "Hg10 mi
11:20 am68 °FSunny.14 mph60%30.18 "Hg10 mi
10:50 am68 °FSunny.12 mph64%30.18 "Hg10 mi
10:20 am66 °FSunny.14 mph64%30.18 "Hg10 mi
9:50 am66 °FSunny.14 mph64%30.18 "Hg10 mi
9:20 am64 °FSunny.17 mph68%30.18 "Hg10 mi
8:50 am64 °FSunny.15 mph68%30.18 "Hg10 mi
8:20 am63 °FSunny.16 mph73%30.18 "Hg10 mi
7:50 am61 °FSunny.15 mph77%30.18 "Hg10 mi
8:50 pm
Fri, May 26
66 °FSunny.10 mph60%30.15 "Hg10 mi
8:20 pm68 °FSunny.10 mph56%30.15 "Hg10 mi
7:50 pm70 °FSunny.10 mph53%30.15 "Hg10 mi
7:20 pm70 °FPassing clouds.10 mph53%30.15 "HgN/A
Weather by CustomWeather, © 2017

See weather overviewHow to use our weather pages